User: anonymous   Login
Location: Berkeley
(37.8716°N, 122.2727°W)
Time: 20:08:49
(UTC-07:00)
Language:

NOAA 18 - Orbit

View from above orbital plane
View from above orbital plane
View from above satellite
View from above satellite

Ground track
Ground track

The orbit data is extracted from the following two-line orbital elements,

1 28654U 05018A   19109.56432316  .00000086  00000-0  71695-4 0  9995
2 28654  99.1032 155.6114 0013882 351.1494   8.9430 14.12417044717033
Epoch (UTC): 19 April 2019 13:32:37
Eccentricity: 0.0013882
inclination: 99.1032°
perigee height: 841 km
apogee height: 861 km
right ascension of ascending node: 155.6114°
argument of perigee: 351.1494°
revolutions per day: 14.12417044
mean anomaly at epoch: 8.9430°
orbit number at epoch: 71703

The dashed part of the orbit path shows where the satellite is in the earth's shadow,  

DLR